Time,TemperatureF,DewpointF,PressureIn,WindDirection,WindDirectionDegrees,WindSpeedMPH,WindSpeedGustMPH,Humidity,HourlyPrecipIn,Conditions,Clouds,dailyrainin,SoftwareType,DateUTC
2013-05-19 00:01:00,50.0,39.0,30.36,South,180,6.0,7.0,68,0.00,,,0.00,Rainwise IP-100,2013-05-19 04:01:00,
2013-05-19 00:06:00,50.0,39.0,30.35,South,180,1.0,6.0,67,0.00,,,0.00,Rainwise IP-100,2013-05-19 04:06:00,
2013-05-19 00:11:00,51.0,40.0,30.35,SSW,202,2.0,5.0,65,0.00,,,0.00,Rainwise IP-100,2013-05-19 04:11:00,
2013-05-19 00:16:00,50.0,39.0,30.35,South,180,3.0,6.0,66,0.00,,,0.00,Rainwise IP-100,2013-05-19 04:16:00,
2013-05-19 00:21:00,50.0,39.0,30.35,South,180,4.0,5.0,67,0.00,,,0.00,Rainwise IP-100,2013-05-19 04:21:00,
2013-05-19 00:26:00,50.0,39.0,30.36,SE,135,5.0,6.0,68,0.00,,,0.00,Rainwise IP-100,2013-05-19 04:26:00,
2013-05-19 00:31:00,50.0,39.0,30.36,SE,135,5.0,7.0,68,0.00,,,0.00,Rainwise IP-100,2013-05-19 04:31:00,
2013-05-19 00:36:00,49.0,41.0,30.36,WSW,247,3.0,5.0,74,0.00,,,0.00,Rainwise IP-100,2013-05-19 04:36:00,
2013-05-19 00:41:00,49.0,41.0,30.36,SW,225,4.0,4.0,75,0.00,,,0.00,Rainwise IP-100,2013-05-19 04:41:00,
2013-05-19 00:46:00,47.0,40.0,30.37,SW,225,3.0,6.0,78,0.00,,,0.00,Rainwise IP-100,2013-05-19 04:46:00,
2013-05-19 00:51:00,47.0,40.0,30.37,South,180,0.0,4.0,79,0.00,,,0.00,Rainwise IP-100,2013-05-19 04:51:00,
2013-05-19 00:56:00,48.0,41.0,30.37,SW,225,3.0,6.0,77,0.00,,,0.00,Rainwise IP-100,2013-05-19 04:56:00,
2013-05-19 01:01:00,47.0,40.0,30.37,SW,225,4.0,6.0,77,0.00,,,0.00,Rainwise IP-100,2013-05-19 05:01:00,
2013-05-19 01:06:00,47.0,40.0,30.37,SW,225,2.0,5.0,78,0.00,,,0.00,Rainwise IP-100,2013-05-19 05:06:00,
2013-05-19 01:11:00,47.0,40.0,30.37,SW,225,0.0,3.0,79,0.00,,,0.00,Rainwise IP-100,2013-05-19 05:11:00,
2013-05-19 01:16:00,47.0,40.0,30.36,SW,225,0.0,2.0,77,0.00,,,0.00,Rainwise IP-100,2013-05-19 05:16:00,
2013-05-19 01:21:00,47.0,39.0,30.36,SW,225,0.0,0.0,75,0.00,,,0.00,Rainwise IP-100,2013-05-19 05:21:00,
2013-05-19 01:26:00,47.0,39.0,30.36,South,180,3.0,4.0,76,0.00,,,0.00,Rainwise IP-100,2013-05-19 05:26:00,
2013-05-19 01:31:00,48.0,40.0,30.36,SSE,157,3.0,4.0,73,0.00,,,0.00,Rainwise IP-100,2013-05-19 05:31:00,
2013-05-19 01:36:00,48.0,40.0,30.36,SSE,157,3.0,3.0,73,0.00,,,0.00,Rainwise IP-100,2013-05-19 05:36:00,
2013-05-19 01:41:00,48.0,41.0,30.36,SSE,157,2.0,3.0,75,0.00,,,0.00,Rainwise IP-100,2013-05-19 05:41:00,
2013-05-19 01:46:00,48.0,41.0,30.36,SSE,157,0.0,3.0,76,0.00,,,0.00,Rainwise IP-100,2013-05-19 05:46:00,
2013-05-19 01:51:00,47.0,40.0,30.36,SSE,157,0.0,2.0,79,0.00,,,0.00,Rainwise IP-100,2013-05-19 05:51:00,
2013-05-19 01:56:00,46.0,40.0,30.36,SSE,157,0.0,1.0,81,0.00,,,0.00,Rainwise IP-100,2013-05-19 05:56:00,
2013-05-19 02:01:00,46.0,40.0,30.36,SSE,157,0.0,0.0,82,0.00,,,0.00,Rainwise IP-100,2013-05-19 06:01:00,
2013-05-19 02:06:00,45.0,40.0,30.37,SSE,157,2.0,3.0,82,0.00,,,0.00,Rainwise IP-100,2013-05-19 06:06:00,
2013-05-19 02:11:00,46.0,40.0,30.37,SSE,157,2.0,4.0,81,0.00,,,0.00,Rainwise IP-100,2013-05-19 06:11:00,
2013-05-19 02:16:00,46.0,40.0,30.37,SSE,157,3.0,4.0,81,0.00,,,0.00,Rainwise IP-100,2013-05-19 06:16:00,
2013-05-19 02:21:00,46.0,40.0,30.37,SSE,157,0.0,4.0,81,0.00,,,0.00,Rainwise IP-100,2013-05-19 06:21:00,
2013-05-19 02:26:00,46.0,41.0,30.37,SSE,157,0.0,1.0,83,0.00,,,0.00,Rainwise IP-100,2013-05-19 06:26:00,
2013-05-19 02:31:00,46.0,40.0,30.37,SSE,157,0.0,1.0,81,0.00,,,0.00,Rainwise IP-100,2013-05-19 06:31:00,
2013-05-19 02:36:00,46.0,40.0,30.37,SSE,157,0.0,0.0,82,0.00,,,0.00,Rainwise IP-100,2013-05-19 06:36:00,
2013-05-19 02:41:00,45.0,40.0,30.37,SSE,157,0.0,0.0,83,0.00,,,0.00,Rainwise IP-100,2013-05-19 06:41:00,
2013-05-19 02:46:00,45.0,40.0,30.37,SSE,157,2.0,3.0,84,0.00,,,0.00,Rainwise IP-100,2013-05-19 06:46:00,
2013-05-19 02:51:00,46.0,40.0,30.37,SSE,157,2.0,3.0,82,0.00,,,0.00,Rainwise IP-100,2013-05-19 06:51:00,
2013-05-19 02:53:00,46.0,40.0,30.37,SSE,157,3.0,3.0,82,0.00,,,0.00,Rainwise IP-100,2013-05-19 06:53:00,
2013-05-19 02:58:00,45.0,40.0,30.37,SSE,157,1.0,4.0,82,0.00,,,0.00,Rainwise IP-100,2013-05-19 06:58:00,
2013-05-19 03:03:00,46.0,40.0,30.37,SSE,157,3.0,4.0,82,0.00,,,0.00,Rainwise IP-100,2013-05-19 07:03:00,
2013-05-19 03:08:00,46.0,40.0,30.37,SSE,157,1.0,4.0,82,0.00,,,0.00,Rainwise IP-100,2013-05-19 07:08:00,
2013-05-19 03:13:00,45.0,40.0,30.37,SSE,157,0.0,2.0,83,0.00,,,0.00,Rainwise IP-100,2013-05-19 07:13:00,
2013-05-19 03:18:00,45.0,41.0,30.37,SSE,157,0.0,0.0,85,0.00,,,0.00,Rainwise IP-100,2013-05-19 07:18:00,
2013-05-19 03:23:00,44.0,41.0,30.38,SW,225,2.0,4.0,89,0.00,,,0.00,Rainwise IP-100,2013-05-19 07:23:00,
2013-05-19 03:28:00,44.0,41.0,30.38,SW,225,0.0,2.0,89,0.00,,,0.00,Rainwise IP-100,2013-05-19 07:28:00,
2013-05-19 03:33:00,44.0,41.0,30.38,SW,225,0.0,0.0,90,0.00,,,0.00,Rainwise IP-100,2013-05-19 07:33:00,
2013-05-19 03:38:00,44.0,40.0,30.38,SW,225,0.0,1.0,87,0.00,,,0.00,Rainwise IP-100,2013-05-19 07:38:00,
2013-05-19 03:43:00,45.0,41.0,30.37,SW,225,0.0,0.0,87,0.00,,,0.00,Rainwise IP-100,2013-05-19 07:43:00,
2013-05-19 03:48:00,44.0,40.0,30.37,SW,225,0.0,0.0,87,0.00,,,0.00,Rainwise IP-100,2013-05-19 07:48:00,
2013-05-19 03:53:00,45.0,41.0,30.38,SW,225,0.0,0.0,86,0.00,,,0.00,Rainwise IP-100,2013-05-19 07:53:00,
2013-05-19 03:58:00,45.0,41.0,30.38,SW,225,0.0,0.0,86,0.00,,,0.00,Rainwise IP-100,2013-05-19 07:58:00,
2013-05-19 04:03:00,44.0,40.0,30.39,SW,225,0.0,0.0,87,0.00,,,0.00,Rainwise IP-100,2013-05-19 08:03:00,
2013-05-19 04:08:00,44.0,41.0,30.39,SW,225,0.0,0.0,90,0.00,,,0.00,Rainwise IP-100,2013-05-19 08:08:00,
2013-05-19 04:13:00,43.0,41.0,30.39,SW,225,0.0,0.0,92,0.00,,,0.00,Rainwise IP-100,2013-05-19 08:13:00,
2013-05-19 04:18:00,43.0,40.0,30.39,SW,225,0.0,0.0,91,0.00,,,0.00,Rainwise IP-100,2013-05-19 08:18:00,
2013-05-19 04:23:00,43.0,40.0,30.39,SW,225,0.0,0.0,90,0.00,,,0.00,Rainwise IP-100,2013-05-19 08:23:00,
2013-05-19 04:28:00,43.0,40.0,30.39,SW,225,0.0,0.0,90,0.00,,,0.00,Rainwise IP-100,2013-05-19 08:28:00,
2013-05-19 04:33:00,43.0,40.0,30.39,SW,225,0.0,3.0,91,0.00,,,0.00,Rainwise IP-100,2013-05-19 08:33:00,
2013-05-19 04:38:00,43.0,41.0,30.39,SW,225,0.0,1.0,92,0.00,,,0.00,Rainwise IP-100,2013-05-19 08:38:00,
2013-05-19 04:43:00,44.0,41.0,30.39,SW,225,0.0,0.0,90,0.00,,,0.00,Rainwise IP-100,2013-05-19 08:43:00,
2013-05-19 04:48:00,44.0,41.0,30.39,South,180,4.0,4.0,89,0.00,,,0.00,Rainwise IP-100,2013-05-19 08:48:00,
2013-05-19 04:53:00,45.0,41.0,30.39,South,180,2.0,6.0,88,0.00,,,0.00,Rainwise IP-100,2013-05-19 08:53:00,
2013-05-19 04:58:00,45.0,41.0,30.39,South,180,2.0,3.0,88,0.00,,,0.00,Rainwise IP-100,2013-05-19 08:58:00,
2013-05-19 05:03:00,45.0,42.0,30.39,South,180,2.0,3.0,89,0.00,,,0.00,Rainwise IP-100,2013-05-19 09:03:00,
2013-05-19 05:08:00,44.0,41.0,30.39,SW,225,2.0,3.0,90,0.00,,,0.00,Rainwise IP-100,2013-05-19 09:08:00,
2013-05-19 05:13:00,44.0,41.0,30.40,SW,225,0.0,3.0,90,0.00,,,0.00,Rainwise IP-100,2013-05-19 09:13:00,
2013-05-19 05:18:00,44.0,41.0,30.40,SW,225,0.0,0.0,90,0.00,,,0.00,Rainwise IP-100,2013-05-19 09:18:00,
2013-05-19 05:23:00,44.0,41.0,30.40,SW,225,0.0,0.0,90,0.00,,,0.00,Rainwise IP-100,2013-05-19 09:23:00,
2013-05-19 05:28:00,43.0,42.0,30.40,SW,225,0.0,0.0,95,0.00,,,0.00,Rainwise IP-100,2013-05-19 09:28:00,
2013-05-19 05:33:00,43.0,42.0,30.40,SW,225,0.0,0.0,96,0.00,,,0.00,Rainwise IP-100,2013-05-19 09:33:00,
2013-05-19 05:38:00,42.0,41.0,30.40,SW,225,0.0,0.0,96,0.00,,,0.00,Rainwise IP-100,2013-05-19 09:38:00,
2013-05-19 05:43:00,42.0,41.0,30.41,SW,225,0.0,0.0,96,0.00,,,0.00,Rainwise IP-100,2013-05-19 09:43:00,
2013-05-19 05:48:00,42.0,41.0,30.41,SW,225,0.0,0.0,96,0.00,,,0.00,Rainwise IP-100,2013-05-19 09:48:00,
2013-05-19 05:53:00,42.0,41.0,30.41,SW,225,0.0,0.0,96,0.00,,,0.00,Rainwise IP-100,2013-05-19 09:53:00,
2013-05-19 05:58:00,43.0,42.0,30.41,SW,225,0.0,0.0,96,0.00,,,0.00,Rainwise IP-100,2013-05-19 09:58:00,
2013-05-19 06:03:00,43.0,42.0,30.41,SW,225,0.0,0.0,95,0.00,,,0.00,Rainwise IP-100,2013-05-19 10:03:00,
2013-05-19 06:08:00,43.0,42.0,30.41,SW,225,0.0,0.0,95,0.00,,,0.00,Rainwise IP-100,2013-05-19 10:08:00,
2013-05-19 06:13:00,43.0,41.0,30.41,SW,225,0.0,0.0,94,0.00,,,0.00,Rainwise IP-100,2013-05-19 10:13:00,
2013-05-19 06:18:00,43.0,42.0,30.41,SW,225,0.0,0.0,96,0.00,,,0.00,Rainwise IP-100,2013-05-19 10:18:00,
2013-05-19 06:23:00,43.0,42.0,30.41,SW,225,0.0,0.0,96,0.00,,,0.00,Rainwise IP-100,2013-05-19 10:23:00,
2013-05-19 06:28:00,43.0,42.0,30.41,SW,225,0.0,0.0,96,0.00,,,0.00,Rainwise IP-100,2013-05-19 10:28:00,
2013-05-19 06:33:00,43.0,42.0,30.41,SW,225,0.0,0.0,96,0.00,,,0.00,Rainwise IP-100,2013-05-19 10:33:00,
2013-05-19 06:38:00,43.0,42.0,30.41,SW,225,0.0,0.0,96,0.00,,,0.00,Rainwise IP-100,2013-05-19 10:38:00,
2013-05-19 06:43:00,43.0,42.0,30.41,SW,225,0.0,0.0,96,0.00,,,0.00,Rainwise IP-100,2013-05-19 10:43:00,
2013-05-19 06:48:00,44.0,43.0,30.41,SW,225,0.0,0.0,95,0.00,,,0.00,Rainwise IP-100,2013-05-19 10:48:00,
2013-05-19 06:53:00,45.0,44.0,30.41,SW,225,0.0,0.0,97,0.00,,,0.00,Rainwise IP-100,2013-05-19 10:53:00,
2013-05-19 06:58:00,46.0,45.0,30.41,SW,225,0.0,0.0,96,0.00,,,0.00,Rainwise IP-100,2013-05-19 10:58:00,
2013-05-19 07:03:00,47.0,43.0,30.41,SW,225,0.0,0.0,88,0.00,,,0.00,Rainwise IP-100,2013-05-19 11:03:00,
2013-05-19 07:07:00,48.0,44.0,30.41,SW,225,0.0,0.0,85,0.00,,,0.00,Rainwise IP-100,2013-05-19 11:07:00,
2013-05-19 07:12:00,49.0,44.0,30.41,SW,225,0.0,0.0,84,0.00,,,0.00,Rainwise IP-100,2013-05-19 11:12:00,
2013-05-19 07:17:00,51.0,45.0,30.40,SW,225,0.0,0.0,78,0.00,,,0.00,Rainwise IP-100,2013-05-19 11:17:00,
2013-05-19 07:22:00,52.0,46.0,30.40,West,270,0.0,1.0,79,0.00,,,0.00,Rainwise IP-100,2013-05-19 11:22:00,
2013-05-19 07:27:00,53.0,45.0,30.39,WNW,292,0.0,0.0,75,0.00,,,0.00,Rainwise IP-100,2013-05-19 11:27:00,
2013-05-19 07:32:00,53.0,43.0,30.39,WNW,292,0.0,2.0,71,0.00,,,0.00,Rainwise IP-100,2013-05-19 11:32:00,
2013-05-19 07:37:00,53.0,43.0,30.39,North,360,1.0,2.0,71,0.00,,,0.00,Rainwise IP-100,2013-05-19 11:37:00,
2013-05-19 07:42:00,52.0,44.0,30.39,North,360,2.0,3.0,74,0.00,,,0.00,Rainwise IP-100,2013-05-19 11:42:00,
2013-05-19 07:47:00,52.0,43.0,30.39,North,360,3.0,4.0,73,0.00,,,0.00,Rainwise IP-100,2013-05-19 11:47:00,
2013-05-19 07:52:00,51.0,44.0,30.39,North,360,1.0,3.0,75,0.00,,,0.00,Rainwise IP-100,2013-05-19 11:52:00,
2013-05-19 07:57:00,51.0,44.0,30.40,NNE,22,0.0,2.0,76,0.00,,,0.00,Rainwise IP-100,2013-05-19 11:57:00,
2013-05-19 08:02:00,52.0,44.0,30.40,NNE,22,0.0,1.0,75,0.00,,,0.00,Rainwise IP-100,2013-05-19 12:02:00,
2013-05-19 08:07:00,52.0,44.0,30.39,NNE,22,0.0,1.0,75,0.00,,,0.00,Rainwise IP-100,2013-05-19 12:07:00,
2013-05-19 08:12:00,53.0,45.0,30.39,NNE,22,0.0,1.0,74,0.00,,,0.00,Rainwise IP-100,2013-05-19 12:12:00,
2013-05-19 08:17:00,53.0,45.0,30.39,NE,45,0.0,3.0,74,0.00,,,0.00,Rainwise IP-100,2013-05-19 12:17:00,
2013-05-19 08:22:00,53.0,45.0,30.39,North,360,2.0,3.0,75,0.00,,,0.00,Rainwise IP-100,2013-05-19 12:22:00,
2013-05-19 08:27:00,53.0,45.0,30.39,North,360,0.0,3.0,75,0.00,,,0.00,Rainwise IP-100,2013-05-19 12:27:00,
2013-05-19 08:32:00,54.0,46.0,30.39,North,360,0.0,3.0,74,0.00,,,0.00,Rainwise IP-100,2013-05-19 12:32:00,
2013-05-19 08:37:00,55.0,46.0,30.39,North,360,0.0,3.0,71,0.00,,,0.00,Rainwise IP-100,2013-05-19 12:37:00,
2013-05-19 08:42:00,55.0,46.0,30.39,East,90,0.0,4.0,70,0.00,,,0.00,Rainwise IP-100,2013-05-19 12:42:00,
2013-05-19 08:47:00,55.0,46.0,30.39,East,90,2.0,4.0,70,0.00,,,0.00,Rainwise IP-100,2013-05-19 12:47:00,
2013-05-19 08:52:00,56.0,46.0,30.39,NE,45,1.0,5.0,68,0.00,,,0.00,Rainwise IP-100,2013-05-19 12:52:00,
2013-05-19 08:57:00,56.0,45.0,30.38,NE,45,2.0,3.0,67,0.00,,,0.00,Rainwise IP-100,2013-05-19 12:57:00,
2013-05-19 09:02:00,55.0,45.0,30.38,East,90,4.0,5.0,69,0.00,,,0.00,Rainwise IP-100,2013-05-19 13:02:00,
2013-05-19 09:07:00,56.0,45.0,30.39,East,90,0.0,5.0,67,0.00,,,0.00,Rainwise IP-100,2013-05-19 13:07:00,
2013-05-19 09:12:00,57.0,46.0,30.39,ENE,67,1.0,2.0,66,0.00,,,0.00,Rainwise IP-100,2013-05-19 13:12:00,
2013-05-19 09:17:00,58.0,46.0,30.38,NE,45,1.0,1.0,64,0.00,,,0.00,Rainwise IP-100,2013-05-19 13:17:00,
2013-05-19 09:22:00,59.0,47.0,30.38,NE,45,1.0,2.0,63,0.00,,,0.00,Rainwise IP-100,2013-05-19 13:22:00,
2013-05-19 09:27:00,59.0,45.0,30.37,East,90,4.0,4.0,60,0.00,,,0.00,Rainwise IP-100,2013-05-19 13:27:00,
2013-05-19 09:32:00,60.0,47.0,30.37,East,90,1.0,4.0,61,0.00,,,0.00,Rainwise IP-100,2013-05-19 13:32:00,
2013-05-19 09:36:00,60.0,47.0,30.36,NE,45,3.0,4.0,62,0.00,,,0.00,Rainwise IP-100,2013-05-19 13:36:00,
2013-05-19 09:41:00,60.0,47.0,30.36,NE,45,1.0,4.0,61,0.00,,,0.00,Rainwise IP-100,2013-05-19 13:41:00,
2013-05-19 09:46:00,60.0,47.0,30.37,North,360,0.0,1.0,62,0.00,,,0.00,Rainwise IP-100,2013-05-19 13:46:00,
2013-05-19 09:51:00,60.0,47.0,30.37,ESE,112,4.0,4.0,62,0.00,,,0.00,Rainwise IP-100,2013-05-19 13:51:00,
2013-05-19 09:56:00,59.0,47.0,30.37,East,90,1.0,5.0,63,0.00,,,0.00,Rainwise IP-100,2013-05-19 13:56:00,
2013-05-19 10:01:00,59.0,47.5,30.37,East,90,4.0,5.0,65,0.00,,,0.00,Rainwise IP-100,2013-05-19 14:01:00,
2013-05-19 10:06:00,59.0,47.5,30.37,ESE,112,0.0,4.0,65,0.00,,,0.00,Rainwise IP-100,2013-05-19 14:06:00,
2013-05-19 10:11:00,60.0,47.5,30.37,East,90,1.0,4.0,64,0.00,,,0.00,Rainwise IP-100,2013-05-19 14:11:00,
2013-05-19 10:16:00,60.0,47.5,30.37,East,90,3.0,3.0,63,0.00,,,0.00,Rainwise IP-100,2013-05-19 14:16:00,
2013-05-19 10:21:00,61.0,49.0,30.37,East,90,1.0,3.0,64,0.00,,,0.00,Rainwise IP-100,2013-05-19 14:21:00,
2013-05-19 10:26:00,62.0,48.0,30.35,ENE,67,0.0,4.0,60,0.00,,,0.00,Rainwise IP-100,2013-05-19 14:26:00,
2013-05-19 10:31:00,62.0,48.0,30.35,NE,45,1.0,4.0,60,0.00,,,0.00,Rainwise IP-100,2013-05-19 14:31:00,
2013-05-19 10:36:00,63.0,47.0,30.35,North,360,3.0,5.0,56,0.00,,,0.00,Rainwise IP-100,2013-05-19 14:36:00,
2013-05-19 10:41:00,63.0,49.0,30.35,NNW,337,4.0,4.0,61,0.00,,,0.00,Rainwise IP-100,2013-05-19 14:41:00,
2013-05-19 10:46:00,63.0,49.0,30.35,NNW,337,2.0,6.0,61,0.00,,,0.00,Rainwise IP-100,2013-05-19 14:46:00,
2013-05-19 10:51:00,63.0,49.0,30.35,North,360,2.0,6.0,60,0.00,,,0.00,Rainwise IP-100,2013-05-19 14:51:00,
2013-05-19 10:56:00,62.0,47.5,30.35,SW,225,4.0,6.0,59,0.00,,,0.00,Rainwise IP-100,2013-05-19 14:56:00,
2013-05-19 11:01:00,63.0,48.0,30.35,West,270,0.0,4.0,59,0.00,,,0.00,Rainwise IP-100,2013-05-19 15:01:00,
2013-05-19 11:06:00,64.0,50.5,30.35,East,90,3.0,6.0,62,0.00,,,0.00,Rainwise IP-100,2013-05-19 15:06:00,
2013-05-19 11:11:00,64.0,48.0,30.35,East,90,4.0,6.0,57,0.00,,,0.00,Rainwise IP-100,2013-05-19 15:11:00,
2013-05-19 11:16:00,63.0,46.0,30.34,South,180,5.0,7.0,53,0.00,,,0.00,Rainwise IP-100,2013-05-19 15:16:00,
2013-05-19 11:21:00,63.0,47.0,30.34,ESE,112,6.0,9.0,55,0.00,,,0.00,Rainwise IP-100,2013-05-19 15:21:00,
2013-05-19 11:26:00,63.0,47.0,30.35,East,90,6.0,12.0,55,0.00,,,0.00,Rainwise IP-100,2013-05-19 15:26:00,
2013-05-19 11:31:00,63.0,46.0,30.35,WSW,247,2.0,15.0,54,0.00,,,0.00,Rainwise IP-100,2013-05-19 15:31:00,
2013-05-19 11:36:00,64.0,47.5,30.33,SSW,202,6.0,9.0,55,0.00,,,0.00,Rainwise IP-100,2013-05-19 15:36:00,
2013-05-19 11:41:00,64.0,47.0,30.33,ENE,67,6.0,10.0,53,0.00,,,0.00,Rainwise IP-100,2013-05-19 15:41:00,
2013-05-19 11:46:00,64.0,47.0,30.33,SE,135,9.0,13.0,53,0.00,,,0.00,Rainwise IP-100,2013-05-19 15:46:00,
2013-05-19 11:51:00,64.0,47.0,30.33,SSE,157,2.0,13.0,54,0.00,,,0.00,Rainwise IP-100,2013-05-19 15:51:00,
2013-05-19 11:56:00,64.0,47.0,30.33,SSE,157,4.0,15.0,54,0.00,,,0.00,Rainwise IP-100,2013-05-19 15:56:00,
2013-05-19 12:01:00,64.0,46.0,30.33,SSW,202,9.0,13.0,52,0.00,,,0.00,Rainwise IP-100,2013-05-19 16:01:00,
2013-05-19 12:06:00,65.0,47.0,30.32,East,90,7.0,12.0,51,0.00,,,0.00,Rainwise IP-100,2013-05-19 16:06:00,
2013-05-19 12:11:00,65.0,47.0,30.32,South,180,7.0,16.0,52,0.00,,,0.00,Rainwise IP-100,2013-05-19 16:11:00,
2013-05-19 12:16:00,65.0,47.5,30.32,SW,225,4.0,15.0,54,0.00,,,0.00,Rainwise IP-100,2013-05-19 16:16:00,
2013-05-19 12:21:00,65.0,47.0,30.32,South,180,9.0,12.0,51,0.00,,,0.00,Rainwise IP-100,2013-05-19 16:21:00,
2013-05-19 12:26:00,65.0,47.0,30.31,East,90,2.0,14.0,51,0.00,,,0.00,Rainwise IP-100,2013-05-19 16:26:00,
2013-05-19 12:31:00,65.0,47.0,30.31,South,180,2.0,13.0,52,0.00,,,0.00,Rainwise IP-100,2013-05-19 16:31:00,
2013-05-19 12:36:00,65.0,47.0,30.30,SE,135,13.0,17.0,51,0.00,,,0.00,Rainwise IP-100,2013-05-19 16:36:00,
2013-05-19 12:41:00,65.0,47.0,30.30,ESE,112,7.0,15.0,51,0.00,,,0.00,Rainwise IP-100,2013-05-19 16:41:00,
2013-05-19 12:46:00,65.0,48.0,30.30,South,180,6.0,17.0,55,0.00,,,0.00,Rainwise IP-100,2013-05-19 16:46:00,
2013-05-19 12:51:00,65.0,47.0,30.30,SE,135,7.0,12.0,52,0.00,,,0.00,Rainwise IP-100,2013-05-19 16:51:00,
2013-05-19 12:56:00,65.0,47.5,30.30,South,180,12.0,13.0,53,0.00,,,0.00,Rainwise IP-100,2013-05-19 16:56:00,
2013-05-19 13:01:00,65.0,47.0,30.30,South,180,7.0,12.0,52,0.00,,,0.00,Rainwise IP-100,2013-05-19 17:01:00,
2013-05-19 13:06:00,65.0,48.0,30.30,SSE,157,6.0,12.0,55,0.00,,,0.00,Rainwise IP-100,2013-05-19 17:06:00,
2013-05-19 13:11:00,65.0,47.5,30.30,WSW,247,2.0,12.0,54,0.00,,,0.00,Rainwise IP-100,2013-05-19 17:11:00,
2013-05-19 13:16:00,65.0,47.5,30.29,SSE,157,7.0,10.0,54,0.00,,,0.00,Rainwise IP-100,2013-05-19 17:16:00,
2013-05-19 13:21:00,65.0,47.5,30.29,East,90,1.0,14.0,54,0.00,,,0.00,Rainwise IP-100,2013-05-19 17:21:00,
2013-05-19 13:26:00,65.0,47.5,30.29,SE,135,8.0,12.0,54,0.00,,,0.00,Rainwise IP-100,2013-05-19 17:26:00,
2013-05-19 13:31:00,65.0,49.0,30.29,SW,225,11.0,12.0,56,0.00,,,0.00,Rainwise IP-100,2013-05-19 17:31:00,
2013-05-19 13:36:00,65.0,48.0,30.29,SW,225,9.0,12.0,55,0.00,,,0.00,Rainwise IP-100,2013-05-19 17:36:00,
2013-05-19 13:41:00,65.0,49.0,30.29,West,270,7.0,12.0,57,0.00,,,0.00,Rainwise IP-100,2013-05-19 17:41:00,
2013-05-19 13:46:00,65.0,50.5,30.29,WSW,247,7.0,14.0,60,0.00,,,0.00,Rainwise IP-100,2013-05-19 17:46:00,
2013-05-19 13:51:00,64.0,52.0,30.29,WSW,247,9.0,11.0,65,0.00,,,0.00,Rainwise IP-100,2013-05-19 17:51:00,
2013-05-19 13:56:00,63.0,53.0,30.29,WSW,247,9.0,15.0,69,0.00,,,0.00,Rainwise IP-100,2013-05-19 17:56:00,
2013-05-19 14:01:00,63.0,53.5,30.29,WSW,247,7.0,15.0,71,0.00,,,0.00,Rainwise IP-100,2013-05-19 18:01:00,
2013-05-19 14:06:00,62.0,53.0,30.30,WNW,292,9.0,13.0,71,0.00,,,0.00,Rainwise IP-100,2013-05-19 18:06:00,
2013-05-19 14:11:00,62.0,53.0,30.30,SW,225,7.0,10.0,72,0.00,,,0.00,Rainwise IP-100,2013-05-19 18:11:00,
2013-05-19 14:16:00,62.0,53.5,30.30,West,270,6.0,13.0,73,0.00,,,0.00,Rainwise IP-100,2013-05-19 18:16:00,
2013-05-19 14:21:00,62.0,53.0,30.30,WSW,247,7.0,9.0,72,0.00,,,0.00,Rainwise IP-100,2013-05-19 18:21:00,
2013-05-19 14:26:00,62.0,53.5,30.30,WSW,247,10.0,10.0,73,0.00,,,0.00,Rainwise IP-100,2013-05-19 18:26:00,
2013-05-19 14:31:00,62.0,53.0,30.30,WSW,247,6.0,10.0,72,0.00,,,0.00,Rainwise IP-100,2013-05-19 18:31:00,
2013-05-19 14:36:00,62.0,53.0,30.30,WSW,247,12.0,12.0,71,0.00,,,0.00,Rainwise IP-100,2013-05-19 18:36:00,
2013-05-19 14:41:00,62.0,53.5,30.30,SW,225,7.0,13.0,73,0.00,,,0.00,Rainwise IP-100,2013-05-19 18:41:00,
2013-05-19 14:46:00,62.0,53.0,30.30,WSW,247,6.0,11.0,72,0.00,,,0.00,Rainwise IP-100,2013-05-19 18:46:00,
2013-05-19 14:51:00,62.0,53.0,30.30,WSW,247,9.0,12.0,72,0.00,,,0.00,Rainwise IP-100,2013-05-19 18:51:00,
2013-05-19 14:56:00,62.0,53.0,30.29,West,270,5.0,12.0,72,0.00,,,0.00,Rainwise IP-100,2013-05-19 18:56:00,
2013-05-19 15:01:00,62.0,53.0,30.29,South,180,6.0,10.0,71,0.00,,,0.00,Rainwise IP-100,2013-05-19 19:01:00,
2013-05-19 15:06:00,62.0,53.5,30.29,SW,225,6.0,12.0,74,0.00,,,0.00,Rainwise IP-100,2013-05-19 19:06:00,
2013-05-19 15:11:00,62.0,53.5,30.29,SW,225,11.0,13.0,73,0.00,,,0.00,Rainwise IP-100,2013-05-19 19:11:00,
2013-05-19 15:16:00,62.0,53.5,30.29,SW,225,10.0,13.0,74,0.00,,,0.00,Rainwise IP-100,2013-05-19 19:16:00,
2013-05-19 15:21:00,62.0,54.5,30.29,West,270,7.0,12.0,76,0.00,,,0.00,Rainwise IP-100,2013-05-19 19:21:00,
2013-05-19 15:26:00,62.0,54.0,30.28,SW,225,8.0,12.0,75,0.00,,,0.00,Rainwise IP-100,2013-05-19 19:26:00,
2013-05-19 15:31:00,62.0,54.5,30.28,SSW,202,7.0,12.0,76,0.00,,,0.00,Rainwise IP-100,2013-05-19 19:31:00,
2013-05-19 15:36:00,61.0,53.5,30.29,SW,225,12.0,14.0,75,0.00,,,0.00,Rainwise IP-100,2013-05-19 19:36:00,
2013-05-19 15:41:00,61.0,53.5,30.29,SSW,202,8.0,14.0,76,0.00,,,0.00,Rainwise IP-100,2013-05-19 19:41:00,
2013-05-19 15:46:00,61.0,54.0,30.29,SW,225,6.0,10.0,78,0.00,,,0.00,Rainwise IP-100,2013-05-19 19:46:00,
2013-05-19 15:51:00,60.0,53.5,30.29,SW,225,7.0,12.0,79,0.00,,,0.00,Rainwise IP-100,2013-05-19 19:51:00,
2013-05-19 15:56:00,60.0,54.0,30.29,SW,225,3.0,12.0,80,0.00,,,0.00,Rainwise IP-100,2013-05-19 19:56:00,
2013-05-19 16:01:00,59.0,53.5,30.29,WSW,247,7.0,9.0,81,0.00,,,0.00,Rainwise IP-100,2013-05-19 20:01:00,
2013-05-19 16:06:00,59.0,54.0,30.30,South,180,6.0,9.0,84,0.00,,,0.00,Rainwise IP-100,2013-05-19 20:06:00,
2013-05-19 16:11:00,58.0,54.0,30.30,SW,225,5.0,12.0,85,0.00,,,0.00,Rainwise IP-100,2013-05-19 20:11:00,
2013-05-19 16:16:00,58.0,54.0,30.30,SW,225,9.0,12.0,86,0.00,,,0.00,Rainwise IP-100,2013-05-19 20:16:00,
2013-05-19 16:21:00,58.0,54.0,30.30,SW,225,9.0,13.0,86,0.00,,,0.00,Rainwise IP-100,2013-05-19 20:21:00,
2013-05-19 16:26:00,58.0,54.5,30.31,SW,225,7.0,11.0,87,0.00,,,0.00,Rainwise IP-100,2013-05-19 20:26:00,
2013-05-19 16:31:00,57.0,53.5,30.31,SW,225,7.0,12.0,88,0.00,,,0.00,Rainwise IP-100,2013-05-19 20:31:00,
2013-05-19 16:36:00,57.0,54.0,30.30,SW,225,11.0,13.0,89,0.00,,,0.00,Rainwise IP-100,2013-05-19 20:36:00,
2013-05-19 16:41:00,57.0,54.5,30.30,SW,225,7.0,14.0,91,0.00,,,0.00,Rainwise IP-100,2013-05-19 20:41:00,
2013-05-19 16:46:00,57.0,54.5,30.30,WSW,247,7.0,10.0,92,0.00,,,0.00,Rainwise IP-100,2013-05-19 20:46:00,
2013-05-19 16:51:00,57.0,54.5,30.30,SW,225,7.0,10.0,92,0.00,,,0.00,Rainwise IP-100,2013-05-19 20:51:00,
2013-05-19 16:56:00,57.0,55.0,30.30,SSW,202,8.0,9.0,93,0.00,,,0.00,Rainwise IP-100,2013-05-19 20:56:00,
2013-05-19 17:01:00,57.0,55.0,30.30,SSW,202,6.0,10.0,94,0.00,,,0.00,Rainwise IP-100,2013-05-19 21:01:00,
2013-05-19 17:06:00,57.0,55.0,30.29,SW,225,9.0,13.0,94,0.00,,,0.00,Rainwise IP-100,2013-05-19 21:06:00,
2013-05-19 17:11:00,57.0,56.0,30.29,SSW,202,11.0,14.0,95,0.00,,,0.00,Rainwise IP-100,2013-05-19 21:11:00,
2013-05-19 17:16:00,57.0,56.0,30.29,SW,225,7.0,13.0,96,0.06,,,0.01,Rainwise IP-100,2013-05-19 21:16:00,
2013-05-19 17:21:00,56.0,54.5,30.29,SSW,202,8.0,13.0,95,0.06,,,0.01,Rainwise IP-100,2013-05-19 21:21:00,
2013-05-19 17:26:00,56.0,54.5,30.29,WSW,247,7.0,11.0,96,0.00,,,0.01,Rainwise IP-100,2013-05-19 21:26:00,
2013-05-19 17:31:00,56.0,55.0,30.29,SW,225,5.0,12.0,97,0.06,,,0.02,Rainwise IP-100,2013-05-19 21:31:00,
2013-05-19 17:36:00,56.0,55.0,30.29,SSW,202,9.0,10.0,97,0.06,,,0.02,Rainwise IP-100,2013-05-19 21:36:00,
2013-05-19 17:41:00,56.0,55.0,30.29,SSW,202,7.0,11.0,97,0.00,,,0.02,Rainwise IP-100,2013-05-19 21:41:00,
2013-05-19 17:46:00,56.0,55.0,30.29,SW,225,9.0,11.0,97,0.00,,,0.02,Rainwise IP-100,2013-05-19 21:46:00,
2013-05-19 17:51:00,56.0,54.5,30.29,SSW,202,10.0,12.0,96,0.00,,,0.02,Rainwise IP-100,2013-05-19 21:51:00,
2013-05-19 17:56:00,56.0,54.5,30.29,SW,225,10.0,13.0,95,0.00,,,0.02,Rainwise IP-100,2013-05-19 21:56:00,
2013-05-19 18:01:00,56.0,54.0,30.29,SW,225,10.0,15.0,94,0.00,,,0.02,Rainwise IP-100,2013-05-19 22:01:00,
2013-05-19 18:06:00,56.0,54.5,30.28,South,180,7.0,12.0,95,0.00,,,0.02,Rainwise IP-100,2013-05-19 22:06:00,
2013-05-19 18:11:00,56.0,54.5,30.28,SW,225,5.0,10.0,95,0.00,,,0.02,Rainwise IP-100,2013-05-19 22:11:00,
2013-05-19 18:16:00,56.0,54.5,30.28,SSW,202,9.0,12.0,95,0.06,,,0.03,Rainwise IP-100,2013-05-19 22:16:00,
2013-05-19 18:21:00,56.0,54.5,30.28,SW,225,9.0,13.0,95,0.06,,,0.03,Rainwise IP-100,2013-05-19 22:21:00,
2013-05-19 18:26:00,56.0,54.5,30.28,South,180,5.0,12.0,95,0.00,,,0.03,Rainwise IP-100,2013-05-19 22:26:00,
2013-05-19 18:31:00,55.0,54.0,30.28,SW,225,7.0,10.0,96,0.00,,,0.03,Rainwise IP-100,2013-05-19 22:31:00,
2013-05-19 18:36:00,55.0,54.0,30.27,SSW,202,9.0,11.0,95,0.00,,,0.03,Rainwise IP-100,2013-05-19 22:36:00,
2013-05-19 18:41:00,55.0,54.0,30.27,SW,225,6.0,10.0,95,0.00,,,0.03,Rainwise IP-100,2013-05-19 22:41:00,
2013-05-19 18:46:00,55.0,53.5,30.28,West,270,6.0,10.0,94,0.00,,,0.03,Rainwise IP-100,2013-05-19 22:46:00,
2013-05-19 18:51:00,55.0,53.0,30.28,SW,225,9.0,15.0,92,0.00,,,0.03,Rainwise IP-100,2013-05-19 22:51:00,
2013-05-19 18:56:00,55.0,53.5,30.27,SW,225,7.0,15.0,93,0.00,,,0.03,Rainwise IP-100,2013-05-19 22:56:00,
2013-05-19 19:01:00,55.0,53.5,30.27,SSW,202,10.0,12.0,93,0.00,,,0.03,Rainwise IP-100,2013-05-19 23:01:00,
2013-05-19 19:06:00,55.0,54.0,30.27,SSW,202,7.0,11.0,95,0.06,,,0.04,Rainwise IP-100,2013-05-19 23:06:00,
2013-05-19 19:11:00,55.0,53.5,30.27,WSW,247,5.0,10.0,94,0.06,,,0.04,Rainwise IP-100,2013-05-19 23:11:00,
2013-05-19 19:16:00,54.0,53.0,30.27,SW,225,10.0,11.0,95,0.00,,,0.04,Rainwise IP-100,2013-05-19 23:16:00,
2013-05-19 19:21:00,54.0,53.0,30.27,SSW,202,9.0,11.0,95,0.00,,,0.04,Rainwise IP-100,2013-05-19 23:21:00,
2013-05-19 19:26:00,54.0,53.5,30.28,SSW,202,6.0,10.0,97,0.06,,,0.05,Rainwise IP-100,2013-05-19 23:26:00,
2013-05-19 19:31:00,54.0,53.5,30.28,SW,225,6.0,10.0,97,0.06,,,0.05,Rainwise IP-100,2013-05-19 23:31:00,
2013-05-19 19:36:00,54.0,53.5,30.28,WSW,247,4.0,9.0,97,0.00,,,0.05,Rainwise IP-100,2013-05-19 23:36:00,
2013-05-19 19:41:00,54.0,53.5,30.28,SSW,202,7.0,8.0,97,0.06,,,0.06,Rainwise IP-100,2013-05-19 23:41:00,
2013-05-19 19:46:00,54.0,53.5,30.27,SSW,202,6.0,7.0,97,0.06,,,0.06,Rainwise IP-100,2013-05-19 23:46:00,
2013-05-19 19:51:00,54.0,53.5,30.27,SW,225,3.0,6.0,97,0.06,,,0.07,Rainwise IP-100,2013-05-19 23:51:00,
2013-05-19 19:56:00,54.0,53.5,30.27,SW,225,5.0,5.0,97,0.06,,,0.07,Rainwise IP-100,2013-05-19 23:56:00,
2013-05-19 20:01:00,54.0,53.5,30.27,West,270,4.0,7.0,97,0.00,,,0.07,Rainwise IP-100,2013-05-20 00:01:00,
2013-05-19 20:06:00,54.0,53.5,30.27,SW,225,5.0,7.0,97,0.00,,,0.07,Rainwise IP-100,2013-05-20 00:06:00,
2013-05-19 20:11:00,53.0,52.0,30.27,SW,225,4.0,7.0,97,0.06,,,0.08,Rainwise IP-100,2013-05-20 00:11:00,
2013-05-19 20:16:00,53.0,52.0,30.27,WSW,247,7.0,9.0,97,0.06,,,0.08,Rainwise IP-100,2013-05-20 00:16:00,
2013-05-19 20:21:00,53.0,52.0,30.27,West,270,6.0,7.0,97,0.00,,,0.08,Rainwise IP-100,2013-05-20 00:21:00,
2013-05-19 20:26:00,53.0,52.0,30.27,WSW,247,4.0,7.0,97,0.00,,,0.08,Rainwise IP-100,2013-05-20 00:26:00,
2013-05-19 20:31:00,53.0,52.0,30.27,NW,315,6.0,6.0,97,0.00,,,0.08,Rainwise IP-100,2013-05-20 00:31:00,
2013-05-19 20:36:00,53.0,52.0,30.27,NW,315,3.0,6.0,97,0.06,,,0.09,Rainwise IP-100,2013-05-20 00:36:00,
2013-05-19 20:41:00,53.0,52.0,30.27,WSW,247,1.0,5.0,97,0.06,,,0.09,Rainwise IP-100,2013-05-20 00:41:00,
2013-05-19 20:46:00,53.0,52.0,30.28,West,270,2.0,5.0,97,0.00,,,0.09,Rainwise IP-100,2013-05-20 00:46:00,
2013-05-19 20:51:00,53.0,52.0,30.28,West,270,0.0,3.0,97,0.06,,,0.10,Rainwise IP-100,2013-05-20 00:51:00,
2013-05-19 20:56:00,53.0,52.0,30.28,SSE,157,0.0,2.0,97,0.06,,,0.11,Rainwise IP-100,2013-05-20 00:56:00,
2013-05-19 21:01:00,53.0,52.0,30.28,SSE,157,0.0,0.0,97,0.12,,,0.12,Rainwise IP-100,2013-05-20 01:01:00,
2013-05-19 21:06:00,53.0,52.0,30.29,SSE,157,1.0,0.0,97,0.18,,,0.14,Rainwise IP-100,2013-05-20 01:06:00,
2013-05-19 21:11:00,53.0,52.0,30.29,SSE,157,0.0,2.0,97,0.24,,,0.16,Rainwise IP-100,2013-05-20 01:11:00,
2013-05-19 21:16:00,53.0,52.0,30.28,SW,225,5.0,7.0,97,0.30,,,0.18,Rainwise IP-100,2013-05-20 01:16:00,
2013-05-19 21:21:00,53.0,52.0,30.28,SW,225,6.0,7.0,97,0.18,,,0.19,Rainwise IP-100,2013-05-20 01:21:00,
2013-05-19 21:26:00,53.0,52.0,30.27,WSW,247,3.0,7.0,97,0.06,,,0.20,Rainwise IP-100,2013-05-20 01:26:00,
2013-05-19 21:31:00,52.0,51.0,30.27,SW,225,4.0,6.0,97,0.12,,,0.21,Rainwise IP-100,2013-05-20 01:31:00,
2013-05-19 21:36:00,52.0,51.0,30.27,WSW,247,2.0,6.0,97,0.12,,,0.21,Rainwise IP-100,2013-05-20 01:36:00,
2013-05-19 21:41:00,52.0,51.0,30.27,SW,225,3.0,6.0,97,0.06,,,0.22,Rainwise IP-100,2013-05-20 01:41:00,
2013-05-19 21:46:00,53.0,52.0,30.27,WSW,247,2.0,5.0,97,0.06,,,0.22,Rainwise IP-100,2013-05-20 01:46:00,
2013-05-19 21:51:00,52.0,51.0,30.27,West,270,3.0,5.0,97,0.12,,,0.24,Rainwise IP-100,2013-05-20 01:51:00,
2013-05-19 21:56:00,52.0,51.0,30.27,West,270,2.0,5.0,97,0.18,,,0.25,Rainwise IP-100,2013-05-20 01:56:00,
2013-05-19 22:01:00,52.0,51.0,30.27,West,270,2.0,5.0,97,0.18,,,0.27,Rainwise IP-100,2013-05-20 02:01:00,
2013-05-19 22:06:00,52.0,51.0,30.27,West,270,3.0,5.0,97,0.12,,,0.28,Rainwise IP-100,2013-05-20 02:06:00,
2013-05-19 22:11:00,52.0,51.0,30.27,West,270,2.0,4.0,97,0.06,,,0.28,Rainwise IP-100,2013-05-20 02:11:00,
2013-05-19 22:16:00,52.0,51.0,30.27,WSW,247,5.0,5.0,97,0.18,,,0.30,Rainwise IP-100,2013-05-20 02:16:00,
2013-05-19 22:21:00,52.0,51.0,30.27,SW,225,7.0,7.0,97,0.30,,,0.33,Rainwise IP-100,2013-05-20 02:21:00,
2013-05-19 22:26:00,52.0,51.0,30.26,SW,225,7.0,8.0,97,0.24,,,0.35,Rainwise IP-100,2013-05-20 02:26:00,
2013-05-19 22:31:00,52.0,51.0,30.26,SW,225,13.0,13.0,97,0.24,,,0.37,Rainwise IP-100,2013-05-20 02:31:00,
2013-05-19 22:36:00,52.0,51.0,30.25,WSW,247,6.0,13.0,97,0.18,,,0.37,Rainwise IP-100,2013-05-20 02:36:00,
2013-05-19 22:41:00,53.0,52.0,30.25,SSW,202,11.0,14.0,97,0.00,,,0.37,Rainwise IP-100,2013-05-20 02:41:00,
2013-05-19 22:46:00,53.0,52.0,30.24,WSW,247,9.0,14.0,97,0.06,,,0.38,Rainwise IP-100,2013-05-20 02:46:00,
2013-05-19 22:51:00,53.0,52.0,30.24,SW,225,4.0,12.0,97,0.06,,,0.38,Rainwise IP-100,2013-05-20 02:51:00,
2013-05-19 22:56:00,53.0,52.0,30.24,SW,225,6.0,13.0,97,0.00,,,0.38,Rainwise IP-100,2013-05-20 02:56:00,
2013-05-19 23:01:00,53.0,52.0,30.24,SW,225,7.0,11.0,97,0.00,,,0.38,Rainwise IP-100,2013-05-20 03:01:00,
2013-05-19 23:06:00,53.0,52.0,30.24,SW,225,7.0,10.0,97,0.00,,,0.38,Rainwise IP-100,2013-05-20 03:06:00,
2013-05-19 23:11:00,53.0,52.0,30.24,SW,225,10.0,12.0,97,0.00,,,0.38,Rainwise IP-100,2013-05-20 03:11:00,
2013-05-19 23:16:00,53.0,52.0,30.23,SW,225,6.0,12.0,97,0.00,,,0.38,Rainwise IP-100,2013-05-20 03:16:00,
2013-05-19 23:21:00,53.0,52.0,30.23,WSW,247,5.0,12.0,97,0.00,,,0.38,Rainwise IP-100,2013-05-20 03:21:00,
2013-05-19 23:26:00,53.0,52.0,30.23,South,180,10.0,12.0,97,0.00,,,0.38,Rainwise IP-100,2013-05-20 03:26:00,
2013-05-19 23:31:00,53.0,52.0,30.23,SW,225,6.0,12.0,97,0.00,,,0.38,Rainwise IP-100,2013-05-20 03:31:00,
2013-05-19 23:36:00,54.0,53.5,30.23,SW,225,6.0,11.0,97,0.00,,,0.38,Rainwise IP-100,2013-05-20 03:36:00,
2013-05-19 23:41:00,54.0,53.5,30.23,South,180,10.0,13.0,97,0.00,,,0.38,Rainwise IP-100,2013-05-20 03:41:00,
2013-05-19 23:46:00,54.0,53.5,30.22,South,180,10.0,12.0,97,0.00,,,0.38,Rainwise IP-100,2013-05-20 03:46:00,
2013-05-19 23:51:00,54.0,53.5,30.22,SW,225,6.0,12.0,97,0.00,,,0.38,Rainwise IP-100,2013-05-20 03:51:00,
2013-05-19 23:56:00,54.0,53.5,30.22,SSW,202,11.0,15.0,97,0.06,,,0.39,Rainwise IP-100,2013-05-20 03:56:00,